[[{"header":{"parameterUnit":"m.s-1","parameterCategory":1,"la1":30.2991,"la2":30.254,"lo1":-89.0895,"lo2":-89.0444,"dy":0.0017,"dx":0.0017,"nx":28,"ny":28,"refTime":"2024-05-11T09:00:00:Z","depth":0,"parameterNumber":2,"parameterNumberName":"U-component_of_WINDS"},"data":[0,0,0,0,0,0,0,0,0,0,0,0,0,0,0,0,0,0,0,0,0,0,0,0,0,0,0,0,0,0,0,0,0,0,0,0,0,0,0,0,0,0,0,0,0,0,0,0,0,0,0,0,0,0,0,0,0,0,-3.264,-3.2639,0,-3.2592,-3.2592,-3.2591,-3.2534,-3.2533,-3.2532,-3.2531,-3.2485,-3.2484,-3.2484,0,0,0,0,0,0,0,0,0,0,0,0,0,-3.2682,-3.2682,-3.264,-3.2639,-3.2638,-3.2592,-3.2592,-3.2591,-3.2534,-3.2533,-3.2532,-3.2531,-3.2485,-3.2484,-3.2484,0,0,0,0,0,0,0,0,0,0,0,0,0,-3.2652,-3.2681,-3.264,-3.2604,-3.2601,-3.2593,-3.2592,-3.2591,-3.2534,-3.2533,-3.2532,-3.2531,-3.2485,-3.2484,-3.2484,-3.2507,0,0,-3.2482,-3.2482,0,0,0,0,0,0,0,0,-3.2654,-3.2651,-3.261,-3.2607,-3.2603,-3.2568,-3.2589,-3.2563,-3.2535,-3.256,-3.2531,-3.253,-3.2513,-3.251,-3.2505,-3.2505,-3.2503,-3.2482,-3.2481,-3.2481,-3.2481,0,0,0,0,0,0,0,-3.2656,-3.2652,-3.2621,-3.261,-3.2605,-3.2591,-3.2586,-3.2584,-3.2545,-3.2557,-3.2553,-3.2548,-3.2511,-3.2505,-3.2503,-3.2502,-3.2482,-3.2481,-3.2481,-3.2481,-3.2517,-3.2519,0,0,0,0,0,0,-3.2663,-3.2655,-3.2622,-3.262,-3.2626,-3.2592,-3.2585,-3.258,-3.2545,-3.2538,-3.2549,-3.2546,-3.2507,-3.2504,-3.2501,-3.2524,-3.2481,-3.2481,-3.248,-3.2516,-3.2518,-3.2519,0,0,0,0,0,0,-3.2664,-3.2661,-3.2624,-3.2636,-3.263,-3.2592,-3.2587,-3.258,-3.2574,-3.2539,-3.2531,-3.2551,-3.2506,-3.2502,-3.2505,-3.2522,-3.248,-3.248,-3.2514,-3.2516,-3.2518,-3.2572,0,0,0,0,0,0,-3.2666,-3.2662,-3.267,-3.2636,-3.263,-3.2629,-3.2588,-3.258,-3.2573,-3.2568,-3.2538,-3.2531,-3.2504,-3.2507,-3.2505,-3.252,-3.2479,-3.2513,-3.2515,-3.2518,-3.2568,-3.2575,-3.2581,0,0,0,0,0,-3.2668,-3.2687,-3.267,-3.2667,-3.2639,-3.263,-3.2626,-3.2594,-3.2575,-3.2582,-3.2559,-3.2532,-3.2521,-3.2507,-3.2505,-3.252,-3.2511,-3.2515,-3.2517,-3.2565,-3.2574,-3.2581,0,0,0,0,0,0,-3.2724,-3.2682,-3.2663,-3.2673,-3.2655,-3.262,-3.2629,-3.2605,-3.2593,-3.2589,-3.255,-3.2544,-3.2552,-3.2537,-3.2523,-3.254,-3.2512,-3.2515,-3.2549,-3.2557,-3.2564,-3.2566,-3.2479,0,0,0,0,0,-3.2738,-3.2734,-3.2698,-3.2709,-3.2702,-3.2667,-3.2662,-3.2639,-3.262,-3.2612,-3.259,-3.2573,-3.2565,-3.2561,-3.2552,-3.2567,-3.2559,-3.2576,-3.2583,-3.2588,-3.259,-3.2596,-3.2602,-3.2529,-3.2529,-3.2529,0,0,-3.2766,-3.2742,-3.2742,-3.272,-3.2704,-3.27,-3.2661,-3.266,-3.2657,-3.2612,-3.2613,-3.2597,-3.2575,-3.2584,-3.2586,-3.2571,-3.2609,-3.2592,-3.2597,-3.2596,-3.2599,-3.2606,-3.2613,-3.2531,-3.2531,-3.253,0,0,-3.2814,-3.2797,-3.2804,-3.2788,-3.2764,-3.2741,-3.2743,-3.2712,-3.2698,-3.2699,-3.2665,-3.2662,-3.265,-3.2635,-3.2626,-3.267,-3.2644,-3.2668,-3.2701,-3.2707,-3.2713,-3.2718,-3.2731,-3.2737,-3.2671,-3.2671,-3.2671,0,-3.2852,-3.2845,-3.2811,-3.2811,-3.2802,-3.2761,-3.2768,-3.2755,-3.2729,-3.2724,-3.2708,-3.2691,-3.2674,-3.2678,-3.2688,-3.2683,-3.2684,-3.267,-3.2715,-3.2719,-3.2723,-3.2736,-3.2741,-3.2674,-3.2674,-3.2673,-3.2673,0,-3.2892,-3.2888,-3.2896,-3.2871,-3.2864,-3.2867,-3.2834,-3.283,-3.2809,-3.2787,-3.2788,-3.2766,-3.2751,-3.2751,-3.273,-3.2752,-3.2743,-3.2722,-3.2692,-3.2734,-3.2745,-3.275,-3.2678,-3.2677,-3.2676,-3.2675,0,0,-3.2974,-3.293,-3.2933,-3.2921,-3.2891,-3.2887,-3.2889,-3.2874,-3.2871,-3.2856,-3.2855,-3.2846,-3.2826,-3.2816,-3.2793,-3.2798,-3.2832,-3.2775,-3.2774,-3.2785,-3.2853,-3.2868,-3.2874,-3.2816,-3.2816,-3.2817,-3.2854,0,-3.3015,-3.3015,-3.2984,-3.2992,-3.2987,-3.2948,-3.295,-3.2932,-3.2913,-3.2906,-3.2885,-3.2878,-3.2852,-3.2846,-3.2849,-3.2827,-3.2845,-3.2824,-3.2814,-3.2814,-3.2818,-3.288,-3.2896,-3.2932,-3.2858,-3.2859,-3.286,0,-3.3064,-3.3049,-3.3056,-3.3025,-3.3022,-3.3024,-3.3007,-3.3001,-3.298,-3.2966,-3.2954,-3.2928,-3.2928,-3.2902,-3.29,-3.2887,-3.2882,-3.287,-3.2871,-3.2867,-3.2838,-3.2876,-3.2943,-3.2948,-3.2866,-3.2866,-3.2865,0,-3.312,-3.3103,-3.3104,-3.3096,-3.306,-3.3062,-3.3047,-3.3025,-3.3017,-3.3003,-3.2998,-3.2985,-3.2977,-3.2967,-3.2938,-3.2922,-3.294,-3.2911,-3.2927,-3.2928,-3.2931,-3.293,-3.2995,-3.2931,-3.2931,-3.2931,-3.2931,0,-3.3169,-3.3175,-3.3129,-3.313,-3.3135,-3.31,-3.3106,-3.3088,-3.3068,-3.3065,-3.3032,-3.303,-3.2992,-3.2986,-3.2964,-3.2965,-3.2963,-3.2951,-3.2944,-3.2952,-3.2953,-3.2947,-3.2943,-3.2932,-3.2932,-3.2932,-3.2931,0,-3.3233,-3.3203,-3.3201,-3.3167,-3.3159,-3.3164,-3.3135,-3.3134,-3.3113,-3.3109,-3.3106,-3.3073,-3.3064,-3.3034,-3.3018,-3.3003,-3.3011,-3.3,-3.3017,-3.3013,-3.3029,-3.3027,-3.309,-3.3096,-3.303,-3.3031,-3.3031,0,-3.3265,-3.3268,-3.3234,-3.3228,-3.3215,-3.3208,-3.3199,-3.3165,-3.3158,-3.3134,-3.3137,-3.3124,-3.3113,-3.31,-3.3074,-3.3062,-3.3049,-3.3072,-3.3047,-3.3055,-3.3047,-3.3047,-3.3046,-3.3077,-3.3078,-3.3079,-3.3079,0,-3.3325,-3.3309,-3.3298,-3.3282,-3.3273,-3.3258,-3.3242,-3.324,-3.3202,-3.3196,-3.3186,-3.3177,-3.3159,-3.3147,-3.3131,-3.3116,-3.3091,-3.3088,-3.309,-3.3097,-3.3107,-3.31,-3.303,-3.3086,-3.3085,-3.3085,-3.3084,-3.3084,-3.3372,-3.3372,-3.3348,-3.3336,-3.3321,-3.3306,-3.3303,-3.3281,-3.3271,-3.3253,-3.3235,-3.3226,-3.3205,-3.3179,-3.3166,-3.3159,-3.3146,-3.315,-3.3151,-3.3152,-3.3155,-3.3109,-3.3156,-3.3156,-3.3156,-3.3156,-3.3156,0,-3.3429,-3.3411,-3.3401,-3.3378,-3.3369,-3.3346,-3.3327,-3.3321,-3.3314,-3.3295,-3.3284,-3.3271,-3.326,-3.3233,-3.3219,-3.3218,-3.3207,-3.3216,-3.3214,-3.3211,-3.3169,-3.3167,-3.3225,-3.3225,-3.3225,-3.3225,-3.3225,-3.3225,-3.3457,-3.3456,-3.3437,-3.3428,-3.341,-3.34,-3.3391,-3.3377,-3.3362,-3.3349,-3.3338,-3.3321,-3.3299,-3.3283,-3.3271,-3.3264,-3.3259,-3.3272,-3.3261,-3.3221,-3.3214,-3.3208,-3.3206,-3.3272,-3.3272,-3.3303,-3.3304,-3.3304]},{"header":{"parameterUnit":"m.s-1","parameterCategory":1,"la1":30.2991,"la2":30.254,"lo1":-89.0895,"lo2":-89.0444,"dy":0.0017,"dx":0.0017,"nx":28,"ny":28,"refTime":"2024-05-11T09:00:00:Z","depth":0,"parameterNumber":3,"parameterNumberName":"V-component_of_WINDS"},"data":[0,0,0,0,0,0,0,0,0,0,0,0,0,0,0,0,0,0,0,0,0,0,0,0,0,0,0,0,0,0,0,0,0,0,0,0,0,0,0,0,0,0,0,0,0,0,0,0,0,0,0,0,0,0,0,0,0,0,5.5661,5.5661,0,5.5681,5.5681,5.5681,5.5602,5.56,5.5597,5.5595,5.5613,5.5615,5.5618,0,0,0,0,0,0,0,0,0,0,0,0,0,5.555,5.5552,5.566,5.5661,5.5661,5.5681,5.5681,5.5682,5.5602,5.56,5.5597,5.5594,5.5612,5.5615,5.5618,0,0,0,0,0,0,0,0,0,0,0,0,0,5.5587,5.5553,5.566,5.5624,5.5621,5.5681,5.5681,5.5682,5.5603,5.5599,5.5596,5.5593,5.5611,5.5615,5.5619,5.5714,0,0,5.5631,5.5633,0,0,0,0,0,0,0,0,5.5585,5.5591,5.5629,5.5627,5.5623,5.5635,5.5649,5.5692,5.5604,5.561,5.5595,5.5591,5.5623,5.5626,5.5637,5.5714,5.5715,5.5631,5.5634,5.5635,5.5636,0,0,0,0,0,0,0,5.5582,5.5589,5.5668,5.563,5.5626,5.5606,5.5607,5.5656,5.5636,5.5609,5.5603,5.5607,5.5621,5.5634,5.5637,5.5715,5.5631,5.5635,5.5637,5.5639,5.587,5.5874,0,0,0,0,0,0,5.5585,5.5588,5.5668,5.5669,5.5595,5.561,5.5612,5.5635,5.5635,5.5632,5.561,5.5603,5.5628,5.5632,5.5637,5.5747,5.5635,5.5639,5.5641,5.5867,5.5871,5.5875,0,0,0,0,0,0,5.5583,5.5593,5.5667,5.5627,5.5635,5.5616,5.5643,5.5637,5.565,5.5636,5.5631,5.5627,5.5626,5.5632,5.5695,5.5746,5.5641,5.5644,5.5862,5.5868,5.5873,5.5968,0,0,0,0,0,0,5.558,5.5593,5.5629,5.5628,5.5637,5.5726,5.5646,5.564,5.5657,5.5649,5.5651,5.5647,5.5623,5.569,5.5699,5.575,5.5648,5.5857,5.5865,5.5871,5.596,5.5976,5.5989,0,0,0,0,0,5.5576,5.5654,5.5631,5.5641,5.5683,5.5729,5.5734,5.5705,5.5662,5.5698,5.5689,5.5647,5.574,5.5697,5.5707,5.5759,5.5854,5.5863,5.5871,5.5953,5.5973,5.5989,0,0,0,0,0,0,5.566,5.5653,5.5628,5.5708,5.572,5.5715,5.5759,5.5727,5.575,5.5741,5.5704,5.5705,5.5775,5.5774,5.5726,5.5851,5.5789,5.58,5.5848,5.5867,5.5881,5.5879,5.5651,0,0,0,0,0,5.5688,5.5727,5.5719,5.5791,5.5798,5.5778,5.5797,5.5775,5.5784,5.5789,5.5784,5.5794,5.5825,5.5847,5.5875,5.5961,5.5958,5.6002,5.6017,5.6029,5.6038,5.6081,5.61,5.5903,5.5903,5.5903,0,0,5.5745,5.5747,5.5773,5.5807,5.5814,5.5853,5.5783,5.5828,5.5856,5.5795,5.5854,5.5852,5.5861,5.5936,5.5968,5.5937,5.6092,5.604,5.605,5.6051,5.6092,5.611,5.6127,5.5909,5.5908,5.5907,0,0,5.587,5.5877,5.5936,5.5944,5.5955,5.5942,5.5956,5.5957,5.5953,5.6013,5.5967,5.6001,5.6056,5.6064,5.6075,5.6205,5.6167,5.6215,5.6291,5.6334,5.635,5.6363,5.6407,5.6423,5.6225,5.6225,5.6225,0,5.594,5.5999,5.597,5.6019,5.6034,5.5983,5.6042,5.6051,5.607,5.6081,5.6047,5.6115,5.6117,5.6192,5.6224,5.6236,5.625,5.6213,5.635,5.6363,5.6375,5.6416,5.6433,5.623,5.623,5.6229,5.6229,0,5.6083,5.6125,5.6172,5.6192,5.6214,5.6267,5.6246,5.6271,5.6247,5.6237,5.6298,5.63,5.6327,5.6344,5.6321,5.6415,5.6395,5.6357,5.6293,5.64,5.6438,5.6454,5.6238,5.6236,5.6235,5.6233,0,0,5.6258,5.6264,5.6281,5.6289,5.6298,5.6329,5.6381,5.6409,5.6429,5.6445,5.6486,5.6535,5.6498,5.6511,5.6489,5.6528,5.6627,5.6483,5.6483,5.6508,5.6729,5.6756,5.6775,5.6604,5.6607,5.6609,5.6728,0,5.6378,5.6466,5.6442,5.653,5.6567,5.652,5.6564,5.6574,5.6567,5.6596,5.6588,5.6622,5.6573,5.658,5.6616,5.6608,5.6671,5.6599,5.6639,5.6641,5.6635,5.6796,5.6824,5.6936,5.6743,5.6745,5.6747,0,5.6529,5.6552,5.6643,5.6646,5.6661,5.6701,5.6724,5.6754,5.6764,5.6756,5.6772,5.6742,5.6791,5.6731,5.6797,5.6749,5.6764,5.6763,5.6766,5.6766,5.6698,5.6797,5.6971,5.6987,5.6771,5.6769,5.6767,0,5.6644,5.6698,5.6759,5.6768,5.6774,5.6803,5.6806,5.6813,5.6831,5.6852,5.6862,5.6888,5.6902,5.6922,5.69,5.6858,5.6969,5.6907,5.6961,5.6962,5.6984,5.6982,5.716,5.6999,5.6999,5.6999,5.6999,0,5.6779,5.6836,5.6811,5.6848,5.691,5.6883,5.6945,5.6943,5.695,5.6985,5.6946,5.698,5.695,5.698,5.6964,5.702,5.7027,5.702,5.7014,5.7022,5.7022,5.7029,5.7019,5.7003,5.7002,5.7001,5.7001,0,5.6917,5.6902,5.6965,5.6966,5.6968,5.7013,5.7013,5.7047,5.7038,5.7083,5.7092,5.7077,5.7111,5.7092,5.7127,5.7115,5.7188,5.7173,5.7184,5.7179,5.7234,5.7228,5.7419,5.7442,5.727,5.7272,5.7273,0,5.7002,5.7045,5.7051,5.7072,5.7078,5.7113,5.7132,5.7107,5.7128,5.7143,5.7175,5.7206,5.7229,5.7286,5.7277,5.7304,5.7287,5.7353,5.7291,5.7297,5.7285,5.7282,5.7285,5.7364,5.7366,5.7368,5.7369,0,5.7154,5.7145,5.7174,5.7201,5.7224,5.7244,5.726,5.7279,5.7255,5.728,5.7315,5.7333,5.737,5.74,5.7423,5.7425,5.7393,5.7389,5.7403,5.7409,5.7413,5.7409,5.7215,5.7384,5.7383,5.7381,5.7381,5.738,5.7266,5.7302,5.7311,5.7344,5.7355,5.7371,5.7402,5.7398,5.7427,5.7455,5.7439,5.7479,5.7488,5.7516,5.7522,5.7553,5.7526,5.7547,5.7551,5.7556,5.7562,5.7411,5.7557,5.7557,5.7557,5.7556,5.7556,0,5.7414,5.7418,5.745,5.7474,5.75,5.747,5.7486,5.7509,5.7546,5.7558,5.7582,5.7622,5.7652,5.7647,5.7673,5.7699,5.7684,5.7706,5.7703,5.7703,5.7586,5.757,5.7717,5.7717,5.7717,5.7717,5.7717,5.7717,5.7494,5.7552,5.7544,5.7606,5.761,5.765,5.7662,5.7676,5.7685,5.7732,5.7757,5.7754,5.7759,5.7786,5.7812,5.7809,5.782,5.7847,5.7839,5.7728,5.7712,5.7696,5.7681,5.785,5.785,5.7953,5.7954,5.7955]}]]